Location: Béaulencourt
(50.0796°N, 2.8795°E)
Time: 23:39:20
(UTC+00:00)

SL-23 DEB - Pass Details

Date: 20 January 2026
Orbit: 423 x 3436 km, 51.4° (Epoch: 7 February)

Event Time Altitude Azimuth Distance (km) Brightness Sun altitude
Exits shadow 06:06:09 29° 273° (W) 818 4.1 -14.2°
Maximum altitude 06:07:37 72° 353° (N) 452 3.3 -14.0°
Drops below altitude 10° 06:11:02 10° 79° (ENE) 1,657 7.3 -13.5°
Sets 06:13:26 0° 81° (E) 2,732 8.7 -13.1°
